Dewpoint
57 57 58 57 57 57 57 58 58 59 59 59 59 60 60 60 60 53 34 47 54 74 74 64 64 67 68 66 65 65 59 56 53 52 52 52 53 52 56 57 57 58 58 57 63
58 58 58 58 58 57 57 58 58 59 59 59 59 60 60 60 52 34 53 71 75 75 64 65 66 65 67 63 66 64 58 55 55 57 53 50 50 49 55 57 57 57 57 58 60
57 57 57 57 57 57 57 57 58 58 58 59 59 59 60 59 47 42 68 74 74 74 63 66 62 60 65 61 60 62 58 56 54 56 54 49 49 51 56 55 56 56 56 57 58
57 57 57 57 57 57 57 58 58 58 58 58 59 59 60 54 43 49 75 74 75 67 64 64 63 62 62 60 60 57 57 56 55 55 52 51 51 50 55 56 56 56 57 57 57
58 57 57 56 56 57 57 58 58 58 58 58 59 60 55 40 34 62 75 73 67 64 62 62 60 62 58 58 58 56 55 53 53 53 51 53 55 53 55 56 56 56 57 57 57
57 56 56 56 56 56 56 57 57 58 58 58 59 60 45 36 48 63 62 64 61 62 64 64 59 62 60 56 56 55 55 52 54 52 52 53 54 55 56 56 55 56 56 56 57
57 56 56 56 56 56 57 57 57 57 58 58 59 55 45 37 53 61 61 59 61 63 62 63 61 60 60 57 55 53 50 51 51 52 53 54 53 53 55 55 54 55 55 56 56
57 56 56 56 55 56 57 57 57 57 58 59 59 54 37 43 56 58 60 59 60 60 62 60 64 61 62 58 55 52 52 50 50 51 53 53 51 55 55 55 54 54 54 55 55
56 56 55 55 55 56 57 56 57 58 60 60 51 47 33 56 55 58 59 58 58 60 59 58 60 58 60 57 55 53 51 52 49 51 53 52 51 52 54 54 54 54 54 54 55
55 55 55 55 55 56 56 56 56 56 55 55 46 38 41 48 53 56 58 58 57 57 58 59 59 57 60 58 51 50 47 49 50 50 51 54 49 50 52 55 53 53 54 54 54
55 55 55 54 56 56 52 47 32 36 43 35 34 39 40 42 52 52 54 56 58 58 55 60 51 52 57 57 56 50 48 50 50 52 52 52 54 53 59 59 58 58 54 54 54
55 55 54 55 55 55 50 46 32 31 30 38 31 35 33 43 50 51 55 57 55 51 56 55 48 54 54 54 54 51 50 49 52 55 53 55 55 57 59 58 60 61 60 59 58
54 54 54 55 55 49 42 38 39 30 24 27 35 33 45 51 51 51 57 58 58 56 56 53 53 54 52 52 53 53 51 48 48 53 56 55 54 56 57 60 62 62 62 61 62
54 55 53 54 43 42 34 29 30 30 22 23 33 33 52 53 51 54 59 59 58 54 56 54 53 52 53 51 51 52 53 51 48 50 49 55 48 55 56 57 60 61 61 60 62
55 54 53 53 49 40 39 38 36 23 20 30 32 40 52 51 51 51 60 59 55 53 55 50 48 54 52 53 55 52 52 49 48 49 52 52 49 51 56 54 57 59 59 62 63
55 54 53 51 49 41 38 37 19 17 17 29 31 47 50 50 51 51 54 57 59 56 59 56 53 53 52 51 54 54 51 51 51 52 46 49 49 46 49 52 54 58 61 63 65
54 53 52 49 40 42 36 26 16 13 20 28 32 40 46 49 49 49 50 51 50 50 51 53 52 49 49 51 50 51 51 45 42 43 43 50 47 44 53 55 56 60 57 62 62
53 51 51 47 45 38 32 23 21 20 15 16 30 32 32 32 38 44 49 49 50 50 47 46 43 45 49 48 46 45 48 42 37 36 38 50 46 47 55 52 57 57 58 58 62
52 49 45 46 46 34 30 22 18 21 13 12 11 14 18 24 28 38 44 48 43 48 47 43 40 47 48 51 43 44 42 42 36 25 41 45 48 55 57 52 53 58 59 55 56
48 45 44 44 31 30 26 28 23 19 14 13 13 18 17 17 18 27 30 29 31 27 33 39 35 40 40 44 45 41 40 29 19 18 13 33 41 41 53 52 53 52 63 64 64
49 43 45 44 29 28 20 22 24 18 16 15 17 17 17 20 19 17 18 17 17 24 39 44 24 15 19 35 26 21 38 31 22 18 15 17 32 49 51 49 50 61 62 63 64
51 44 36 30 24 29 24 25 31 21 20 18 18 18 21 19 19 18 21 21 19 24 22 28 15 19 18 20 17 19 20 19 19 17 19 22 43 53 50 48 60 60 60 62 63
46 49 33 28 23 28 32 34 26 22 22 23 21 26 24 20 19 24 22 19 21 22 17 22 15 13 13 14 16 21 23 21 20 21 21 35 40 52 52 56 60 59 59 60 62
51 44 41 32 32 39 34 34 32 31 26 24 24 23 22 20 22 23 23 26 24 24 51 33 17 14 14 15 18 21 25 24 23 20 20 32 52 51 50 58 58 58 59 61 62
50 45 44 39 37 38 44 34 32 31 34 34 31 36 29 31 32 33 32 31 30 45 28 21 20 32 24 27 29 29 30 30 26 23 20 26 50 53 53 58 58 59 60 60 61
46 46 47 47 42 36 36 33 38 37 36 35 37 37 36 37 35 34 33 35 31 30 37 30 26 39 28 31 30 30 30 31 31 31 35 53 52 56 59 58 58 59 60 60 61
52 51 49 47 43 38 35 36 34 35 36 36 36 38 38 39 39 39 35 33 31 39 29 28 29 30 27 30 30 27 28 29 32 46 45 40 52 58 58 58 58 59 60 60 61
Lifted_Index
14 14 14 14 14 13 13 13 12 12 12 12 11 9 5 3 2 1 2 2 1 -0 -1 -2 -2 -3 -2 -2 -2 -2 -3 -2 -2 -2 -2 -2 -1 -1 -2 -2 -2 -2 -1 -0 -1
14 14 14 14 14 13 13 13 12 12 12 12 12 10 6 4 2 2 2 2 1 -0 -1 -2 -3 -3 -2 -2 -2 -2 -2 -2 -2 -2 -2 -2 -1 -1 -2 -2 -2 -1 -1 -0 -0
14 14 14 14 14 13 13 13 13 12 13 13 12 11 7 4 2 2 2 2 1 -1 -2 -3 -3 -2 -3 -2 -2 -2 -2 -2 -2 -2 -2 -1 -1 -1 -2 -2 -2 -1 -0 -0 0
14 14 15 15 14 14 13 13 13 13 13 13 12 11 7 4 2 1 1 1 0 -1 -2 -3 -3 -2 -2 -3 -2 -2 -2 -2 -2 -2 -2 -2 -1 -1 -2 -2 -1 -1 -0 -0 -0
13 14 15 15 15 14 14 13 13 13 13 13 12 10 6 3 2 1 1 0 -0 -2 -3 -3 -2 -2 -2 -2 -2 -2 -2 -2 -2 -2 -2 -2 -2 -2 -2 -2 -1 -1 -0 -0 -0
12 13 14 15 15 15 14 14 13 13 13 13 12 9 5 2 2 1 1 0 -1 -3 -4 -3 -3 -2 -2 -2 -2 -1 -1 -2 -2 -2 -2 -2 -2 -1 -1 -2 -1 -1 0 0 -0
11 12 14 15 15 15 15 14 13 13 13 12 11 8 4 3 2 1 0 -0 -1 -3 -4 -4 -3 -3 -3 -2 -1 -1 -1 -2 -2 -2 -2 -2 -2 -2 -2 -2 -2 -1 0 0 0
11 12 13 14 15 15 15 14 13 13 12 11 9 5 3 3 2 1 -0 -1 -2 -3 -3 -3 -3 -3 -3 -2 -1 -1 -1 -2 -2 -2 -2 -2 -2 -2 -2 -2 -1 -1 0 0 0
11 11 12 14 15 15 14 14 13 13 11 10 7 4 3 2 2 0 -1 -2 -2 -2 -2 -2 -2 -3 -2 -2 -2 -1 -1 -2 -2 -2 -2 -2 -2 -2 -2 -2 -1 -1 -0 0 0
11 11 12 14 15 15 14 13 12 11 10 8 5 4 3 2 1 0 -1 -1 -1 -2 -2 -2 -2 -2 -2 -2 -2 -2 -2 -2 -2 -1 -1 -2 -2 -2 -2 -2 -1 -1 -0 0 0
10 11 12 13 15 15 13 11 9 7 6 5 5 4 3 2 1 -0 -1 -1 -1 -2 -2 -2 -2 -2 -2 -2 -2 -2 -2 -2 -2 -1 -1 -2 -2 -2 -2 -2 -2 -1 -1 -0 -0
10 10 11 13 14 14 12 10 9 7 4 4 4 4 3 2 0 -0 -1 -2 -2 -2 -2 -2 -1 -1 -2 -2 -2 -2 -2 -2 -2 -2 -2 -2 -2 -2 -2 -2 -2 -2 -1 -1 -1
10 10 12 13 14 13 11 10 10 8 5 3 3 3 2 0 -0 -1 -1 -2 -2 -1 -1 -1 -1 -1 -2 -2 -1 -1 -2 -2 -2 -2 -2 -2 -2 -2 -2 -2 -2 -2 -2 -2 -1
9 10 12 13 13 11 10 10 10 8 5 3 3 2 1 -1 -1 -1 -1 -1 -1 -1 -1 -1 -1 -1 -2 -2 -1 -1 -1 -2 -2 -2 -2 -2 -2 -2 -2 -1 -2 -2 -2 -2 -2
10 11 12 13 11 10 10 10 10 8 5 4 4 2 0 -1 -1 -1 -1 -1 -1 -1 -1 -1 -2 -2 -2 -2 -1 -1 -1 -1 -2 -2 -2 -2 -1 -1 -1 -1 -1 -1 -1 -2 -2
10 11 12 12 10 10 10 10 8 6 4 4 4 2 -0 -1 -1 -1 -1 -1 -2 -2 -2 -2 -2 -2 -3 -2 -2 -2 -1 -1 -1 -2 -2 -2 -1 -1 -0 -1 -1 -1 -1 -2 -2
11 12 12 11 10 10 10 8 6 5 5 5 4 2 0 -0 -1 -1 -1 -2 -2 -2 -2 -2 -2 -2 -2 -2 -2 -1 -1 -1 -1 -1 -1 -2 -1 -1 -1 -1 -1 -1 -1 -2 -2
11 12 12 11 10 10 9 7 5 5 6 5 4 3 2 1 1 0 -1 -2 -3 -3 -3 -3 -2 -2 -1 -1 -1 -1 -1 -1 -1 -1 -1 -1 -1 -2 -2 -2 -2 -1 -1 -1 -1
11 11 11 10 10 9 8 6 5 5 5 4 4 4 4 3 3 1 -1 -2 -3 -3 -3 -3 -2 -1 -1 -1 -1 -1 -1 -1 -1 -0 -1 -1 -2 -2 -2 -2 -2 -2 -3 -2 -2
9 9 9 10 10 9 7 6 6 6 5 5 4 4 4 3 3 2 1 -0 -1 -1 -1 -1 -1 -0 0 0 -0 -0 -0 -0 -0 -0 -1 -1 -1 -2 -2 -2 -2 -3 -5 -5 -5
7 7 8 9 9 8 7 7 7 7 6 6 5 4 4 3 3 2 2 1 1 1 0 0 0 0 1 0 0 0 0 0 0 -0 -0 -1 -1 -2 -2 -2 -3 -4 -6 -6 -7
6 7 9 9 8 7 7 7 7 7 7 6 6 6 5 4 3 3 2 2 2 2 1 1 1 1 1 1 1 1 1 1 1 0 0 -0 -1 -2 -2 -2 -3 -4 -5 -6 -7
6 7 9 10 8 7 7 7 7 7 7 7 7 7 6 5 4 4 3 3 3 3 2 2 1 1 1 1 1 1 1 1 1 1 1 -0 -1 -2 -2 -2 -3 -4 -5 -6 -6
6 7 9 9 8 7 6 6 6 7 7 7 7 7 6 6 5 5 4 4 4 4 3 3 2 2 1 2 2 1 1 1 1 1 1 0 -1 -2 -2 -3 -3 -4 -4 -4 -4
6 6 7 7 7 6 6 6 6 6 6 6 6 6 6 6 6 5 5 5 4 4 4 3 3 2 2 2 2 1 1 1 1 1 1 -0 -2 -3 -3 -3 -4 -3 -3 -3 -4
6 6 6 6 6 6 6 6 5 5 5 6 6 6 6 5 5 5 5 5 4 4 3 3 2 1 1 1 1 1 1 1 1 0 -0 -1 -3 -4 -4 -4 -4 -3 -3 -3 -4
8 7 6 6 6 6 6 6 5 4 5 5 5 6 5 5 5 5 5 5 4 4 3 2 1 1 1 1 1 1 1 1 0 -0 -1 -1 -3 -4 -5 -4 -4 -4 -4 -4 -3